Minnesota City, MN

11:45 PM CST on February 09, 2016 (GMT -0600)
Winona Municipal-Conrad

Weather History for KONA - November, 2012

Change the Weather History Date:

Tuesday, November 27, 2012

  Actual Average Record
Temperature  
Mean Temperature 24 °F -  
Max Temperature 33 °F 37 °F 66 °F (1998)
Min Temperature 14 °F 22 °F -5 °F (1996)
Degree Days  
Heating Degree Days 42    
Moisture  
Dew Point 11 °F    
Average Humidity 56    
Maximum Humidity 73    
Minimum Humidity 41    
Precipitation  
Precipitation 0.00 in - - ()
Sea Level Pressure  
Sea Level Pressure 30.26 in    
Wind  
Wind Speed 3 mph (SW)    
Max Wind Speed 12 mph    
Max Gust Speed 18 mph    
Visibility 10 miles    
Events      
Averages and records for this station are not official NWS values.
T = Trace of Precipitation, MM = Missing Value Source: NWS Daily Summary

Daily Weather History Graph

Daily Weather History Graph

Search for Another Location

Airport or City:

Trip Planner

Search our weather history database for the weather conditions in past years. The results will help you decide how hot, cold, wet, or windy it might be!

Date:

Astronomy

Nov. 27, 2012 Rise Set
Actual Time 7:17 AM CST 4:31 PM CST
Civil Twilight 6:45 AM CST 5:03 PM CST
Nautical Twilight 6:09 AM CST 5:39 PM CST
Astronomical Twilight 5:35 AM CST 6:13 PM CST
Moon 4:03 PM CST (11/27) 6:22 AM CST (11/27)
Length of Visible Light 10h 17m
Length of Day
9h 13m
Waxing Gibbous, 99% of the Moon is Illuminated
Nov 27
Waxing Gibbous
Nov 28
Full
Dec 6
Last Quarter
Dec 13
New
Dec 19
First Quarter

Hourly Weather History & Observations

Time (CST) Temp. Windchill Dew Point Humidity Pressure Visibility Wind Dir Wind Speed Gust Speed Precip Events Conditions
12:12 AM 15.8 °F - 8.6 °F 73% 30.39 in 10.0 mi Calm Calm - N/A   Clear
12:33 AM 15.8 °F - 6.8 °F 68% 30.39 in 10.0 mi Calm Calm - N/A   Clear
12:52 AM 15.8 °F - 5.0 °F 62% 30.39 in 10.0 mi Calm Calm - N/A   Clear
1:12 AM 14.0 °F - 6.8 °F 73% 30.39 in 10.0 mi Calm Calm - N/A   Clear
1:33 AM 15.8 °F - 6.8 °F 68% 30.38 in 10.0 mi Calm Calm - N/A   Clear
1:52 AM 15.8 °F - 6.8 °F 68% 30.38 in 10.0 mi Calm Calm - N/A   Clear
2:13 AM 14.0 °F - 5.0 °F 67% 30.38 in 10.0 mi Calm Calm - N/A   Clear
2:33 AM 15.8 °F - 6.8 °F 68% 30.37 in 10.0 mi Calm Calm - N/A   Clear
2:52 AM 15.8 °F - 6.8 °F 68% 30.37 in 10.0 mi Calm Calm - N/A   Clear
3:13 AM 15.8 °F - 6.8 °F 68% 30.37 in 10.0 mi Calm Calm - N/A   Clear
3:52 AM 15.8 °F - 6.8 °F 68% 30.36 in 10.0 mi Calm Calm - N/A   Clear
4:13 AM 15.8 °F 8.6 °F 6.8 °F 68% 30.35 in 10.0 mi SW 4.6 mph - N/A   Clear
4:33 AM 15.8 °F - 6.8 °F 68% 30.35 in 10.0 mi Calm Calm - N/A   Clear
4:52 AM 15.8 °F 10.2 °F 8.6 °F 73% 30.35 in 10.0 mi SSW 3.5 mph - N/A   Clear
5:13 AM 15.8 °F - 6.8 °F 68% 30.34 in 10.0 mi Calm Calm - N/A   Clear
5:33 AM 15.8 °F - 6.8 °F 68% 30.34 in 10.0 mi Calm Calm - N/A   Clear
5:52 AM 15.8 °F - 6.8 °F 68% 30.33 in 10.0 mi Calm Calm - N/A   Clear
6:13 AM 17.6 °F 12.3 °F 5.0 °F 58% 30.33 in 10.0 mi ENE 3.5 mph - N/A   Clear
6:32 AM 17.6 °F - 6.8 °F 63% 30.33 in 10.0 mi Calm Calm - N/A   Clear
6:53 AM 15.8 °F - 6.8 °F 68% 30.32 in 10.0 mi Calm Calm - N/A   Clear
7:13 AM 17.6 °F 12.3 °F 8.6 °F 68% 30.32 in 10.0 mi South 3.5 mph - N/A   Clear
7:32 AM 17.6 °F - 8.6 °F 68% 30.31 in 10.0 mi Calm Calm - N/A   Clear
7:53 AM 19.4 °F - 8.6 °F 63% 30.32 in 10.0 mi Calm Calm - N/A   Clear
8:13 AM 19.4 °F - 8.6 °F 63% 30.32 in 10.0 mi Calm Calm - N/A   Clear
8:32 AM 19.4 °F 14.3 °F 8.6 °F 63% 30.32 in 10.0 mi SW 3.5 mph - N/A   Clear
8:53 AM 21.2 °F 14.9 °F 10.4 °F 63% 30.32 in 10.0 mi SW 4.6 mph - N/A   Clear
9:13 AM 23.0 °F 13.9 °F 10.4 °F 59% 30.32 in 10.0 mi SW 8.1 mph - N/A   Clear
9:32 AM 23.0 °F - 10.4 °F 59% 30.30 in 10.0 mi Calm Calm - N/A   Clear
9:53 AM 23.0 °F - 10.4 °F 59% 30.29 in 10.0 mi Calm Calm - N/A   Clear
10:13 AM 26.6 °F - 12.2 °F 55% 30.29 in 10.0 mi Calm Calm - N/A   Clear
10:32 AM 28.4 °F 21.2 °F 12.2 °F 51% 30.28 in 10.0 mi SSW 6.9 mph - N/A   Clear
10:53 AM 28.4 °F 22.2 °F 12.2 °F 51% 30.28 in 10.0 mi SW 5.8 mph - N/A   Clear
11:13 AM 28.4 °F 22.2 °F 12.2 °F 51% 30.26 in 10.0 mi SSW 5.8 mph - N/A   Clear
11:32 AM 28.4 °F 23.3 °F 12.2 °F 51% 30.24 in 10.0 mi SW 4.6 mph - N/A   Clear
11:53 AM 30.2 °F 23.4 °F 12.2 °F 47% 30.23 in 10.0 mi SSW 6.9 mph - N/A   Clear
12:13 PM 32.0 °F 26.4 °F 14.0 °F 48% 30.22 in 10.0 mi SW 5.8 mph - N/A   Clear
12:32 PM 32.0 °F 23.6 °F 12.2 °F 44% 30.21 in 10.0 mi SSW 10.4 mph 16.1 mph N/A   Clear
12:53 PM 32.0 °F 23.0 °F 10.4 °F 41% 30.19 in 10.0 mi SW 11.5 mph 18.4 mph N/A   Mostly Cloudy
1:13 PM 32.0 °F 25.6 °F 12.2 °F 44% 30.19 in 10.0 mi SSW 6.9 mph - N/A   Overcast
1:32 PM 32.0 °F 24.2 °F 10.4 °F 41% 30.19 in 10.0 mi SW 9.2 mph - N/A   Overcast
1:53 PM 32.0 °F 24.2 °F 10.4 °F 41% 30.18 in 10.0 mi SW 9.2 mph - N/A   Overcast
2:13 PM 32.0 °F 24.8 °F 12.2 °F 44% 30.17 in 10.0 mi SW 8.1 mph - N/A   Overcast
2:32 PM 32.0 °F 27.5 °F 12.2 °F 44% 30.17 in 10.0 mi SW 4.6 mph - N/A   Overcast
2:53 PM 33.8 °F 26.4 °F 12.2 °F 41% 30.17 in 10.0 mi SW 9.2 mph - N/A   Overcast
3:13 PM 33.8 °F 27.7 °F 12.2 °F 41% 30.16 in 10.0 mi SSW 6.9 mph - N/A   Overcast
3:32 PM 32.0 °F 26.4 °F 12.2 °F 44% 30.16 in 10.0 mi SW 5.8 mph - N/A   Overcast
3:53 PM 32.0 °F 25.6 °F 12.2 °F 44% 30.16 in 10.0 mi SSW 6.9 mph - N/A   Overcast
4:13 PM 32.0 °F 26.4 °F 12.2 °F 44% 30.15 in 10.0 mi SSW 5.8 mph - N/A   Overcast
4:32 PM 32.0 °F 26.4 °F 12.2 °F 44% 30.15 in 10.0 mi SW 5.8 mph - N/A   Overcast
4:53 PM 32.0 °F 27.5 °F 12.2 °F 44% 30.15 in 10.0 mi SSW 4.6 mph - N/A   Overcast
5:13 PM 32.0 °F - 12.2 °F 44% 30.15 in 10.0 mi Calm Calm - N/A   Overcast
6:32 PM 32.0 °F 26.4 °F 12.2 °F 44% 30.17 in 10.0 mi WSW 5.8 mph - N/A   Overcast
6:53 PM 32.0 °F 25.6 °F 12.2 °F 44% 30.17 in 10.0 mi WSW 6.9 mph - N/A   Overcast
7:13 PM 32.0 °F 25.6 °F 12.2 °F 44% 30.18 in 10.0 mi WSW 6.9 mph - N/A   Overcast
7:32 PM 32.0 °F 28.7 °F 14.0 °F 48% 30.17 in 10.0 mi WSW 3.5 mph - N/A   Overcast
7:53 PM 32.0 °F 25.6 °F 14.0 °F 48% 30.17 in 10.0 mi WSW 6.9 mph - N/A   Mostly Cloudy
8:13 PM 32.0 °F 24.2 °F 14.0 °F 48% 30.17 in 10.0 mi WSW 9.2 mph - N/A   Scattered Clouds
8:32 PM 32.0 °F 23.6 °F 14.0 °F 48% 30.17 in 10.0 mi WSW 10.4 mph - N/A   Scattered Clouds
8:53 PM 32.0 °F 23.0 °F 14.0 °F 48% 30.17 in 10.0 mi WSW 11.5 mph 17.3 mph N/A   Clear
9:13 PM 32.0 °F 23.0 °F 15.8 °F 51% 30.18 in 10.0 mi WSW 11.5 mph - N/A   Clear
9:32 PM 32.0 °F 24.8 °F 15.8 °F 51% 30.18 in 10.0 mi West 8.1 mph - N/A   Clear
9:53 PM 30.2 °F 23.4 °F 14.0 °F 51% 30.19 in 10.0 mi West 6.9 mph - N/A   Clear
10:13 PM 30.2 °F 24.3 °F 15.8 °F 55% 30.19 in 10.0 mi West 5.8 mph - N/A   Clear
10:32 PM 30.2 °F 26.7 °F 15.8 °F 55% 30.20 in 10.0 mi NNW 3.5 mph - N/A   Clear
10:53 PM 28.4 °F - 14.0 °F 55% 30.20 in 10.0 mi Calm Calm - N/A   Clear
11:13 PM 28.4 °F 24.6 °F 15.8 °F 59% 30.21 in 10.0 mi WNW 3.5 mph - N/A   Clear
11:32 PM 28.4 °F 23.3 °F 15.8 °F 59% 30.22 in 10.0 mi WNW 4.6 mph - N/A   Clear
11:53 PM 28.4 °F 24.6 °F 17.6 °F 64% 30.22 in 10.0 mi WNW 3.5 mph - N/A   Clear